| time (UTC) | temp C | wind direction | speed KPH | gust KPH | rain 1hr cm | rain 24hr cm | rain mn cm | humidity % | barometer mb |
| 20260504205518 | 24 | 0.0 | 0.0 | 0.00 | 0.25 | 0.00 | 72 | 1020.1 | |
| 20260504204518 | 24 | 0.0 | 0.0 | 0.00 | 0.25 | 0.00 | 72 | 1019.9 | |
| 20260504203518 | 24 | 0.0 | 0.0 | 0.00 | 0.25 | 0.00 | 71 | 1019.7 | |
| 20260504202518 | 24 | 0.0 | 0.0 | 0.00 | 0.25 | 0.00 | 71 | 1019.5 | |
| 20260504201518 | 24 | 0.0 | 0.0 | 0.00 | 0.25 | 0.00 | 71 | 1019.3 | |
| 20260504200518 | 24 | 0.0 | 1.6 | 0.00 | 0.25 | 0.00 | 71 | 1019.2 | |
| 20260504195518 | 24 | 0.0 | 0.0 | 0.00 | 0.25 | 0.00 | 71 | 1019.6 | |
| 20260504194518 | 24 | 0.0 | 0.0 | 0.00 | 0.25 | 0.00 | 71 | 1019.9 | |
| 20260504193518 | 24 | 0.0 | 0.0 | 0.00 | 0.25 | 0.00 | 70 | 1020.0 | |
| 20260504192518 | 24 | 0.0 | 3.2 | 0.00 | 0.25 | 0.00 | 70 | 1019.9 | |
| 20260504191518 | 24 | 0.0 | 3.2 | 0.00 | 0.25 | 0.00 | 70 | 1019.9 | |
| 20260504190518 | 24 | 0.0 | 0.0 | 0.00 | 0.25 | 0.00 | 70 | 1020.0 | |
| 20260504185518 | 24 | 0.0 | 3.2 | 0.00 | 0.25 | 0.00 | 70 | 1020.0 | |
| 20260504184518 | 25 | 0.0 | 1.6 | 0.00 | 0.25 | 0.00 | 70 | 1020.2 | |
| 20260504183518 | 25 | 0.0 | 6.4 | 0.00 | 0.25 | 0.00 | 70 | 1020.6 | |
| 20260504182519 | 25 | 135 | 1.6 | 6.4 | 0.00 | 0.25 | 0.25 | 70 | 1020.5 |
| 20260504181539 | 25 | 0.0 | 4.8 | 0.00 | 0.25 | 0.25 | 69 | 1020.5 | |
| 20260504180519 | 25 | 0.0 | 4.8 | 0.00 | 0.25 | 0.25 | 68 | 1020.5 | |
| 20260504175519 | 25 | 0.0 | 4.8 | 0.00 | 0.25 | 0.25 | 67 | 1020.5 | |
| 20260504174559 | 25 | 225 | 1.6 | 4.8 | 0.00 | 0.25 | 0.25 | 67 | 1020.8 |
| 20260504173518 | 25 | 135 | 1.6 | 4.8 | 0.00 | 0.25 | 0.25 | 66 | 1020.2 |
| 20260504172539 | 26 | 203 | 3.2 | 11.3 | 0.00 | 0.25 | 0.25 | 64 | 1020.6 |
| 20260504171519 | 26 | 0.0 | 3.2 | 0.00 | 0.25 | 0.25 | 64 | 1020.1 | |
| 20260504170539 | 26 | 90 | 1.6 | 3.2 | 0.00 | 0.25 | 0.25 | 64 | 1019.9 |
| 20260504150519 | 26 | 135 | 1.6 | 11.3 | 0.00 | 0.25 | 0.25 | 67 | 1018.9 |
| 20260504140538 | 26 | 0.0 | 4.8 | 0.00 | 0.25 | 0.25 | 68 | 1017.9 | |
| 20260504130518 | 27 | 0.0 | 6.4 | 0.00 | 0.25 | 0.25 | 64 | 1016.5 | |
| 20260504110538 | 33 | 315 | 1.6 | 8.0 | 0.00 | 0.25 | 0.25 | 45 | 1016.1 |
| 20260504100520 | 33 | 293 | 3.2 | 9.7 | 0.00 | 0.28 | 0.25 | 46 | 1016.7 |
| 20260504081519 | 32 | 315 | 1.6 | 8.0 | 0.00 | 0.28 | 0.25 | 49 | 1018.5 |
| 20260504080539 | 32 | 45 | 3.2 | 9.7 | 0.00 | 0.28 | 0.25 | 49 | 1018.7 |
| 20260504050519 | 28 | 293 | 3.2 | 12.9 | 0.00 | 0.28 | 0.25 | 64 | 1021.4 |
| 20260504045519 | 28 | 293 | 1.6 | 8.0 | 0.00 | 0.28 | 0.25 | 67 | 1021.7 |
| 20260504044539 | 28 | 248 | 3.2 | 9.7 | 0.00 | 0.28 | 0.25 | 66 | 1021.6 |
| 20260504043519 | 28 | 293 | 4.8 | 11.3 | 0.00 | 0.28 | 0.25 | 68 | 1021.7 |
| 20260504042519 | 28 | 0.0 | 6.4 | 0.00 | 0.28 | 0.25 | 70 | 1021.8 | |
| 20260504041519 | 27 | 248 | 3.2 | 11.3 | 0.00 | 0.28 | 0.25 | 71 | 1021.5 |
| 20260504040519 | 27 | 248 | 3.2 | 11.3 | 0.00 | 0.28 | 0.25 | 71 | 1021.6 |
| 20260504035519 | 27 | 248 | 1.6 | 12.9 | 0.00 | 0.28 | 0.25 | 73 | 1021.8 |
| 20260504034519 | 27 | 270 | 1.6 | 12.9 | 0.00 | 0.28 | 0.25 | 74 | 1021.5 |
| 20260504033519 | 27 | 270 | 1.6 | 14.5 | 0.00 | 0.28 | 0.25 | 75 | 1021.4 |
| 20260504032519 | 26 | 270 | 1.6 | 6.4 | 0.00 | 0.28 | 0.25 | 79 | 1021.5 |
| 20260504031539 | 26 | 0.0 | 6.4 | 0.00 | 0.28 | 0.25 | 78 | 1021.3 | |
| 20260504030519 | 25 | 270 | 1.6 | 12.9 | 0.00 | 0.28 | 0.25 | 79 | 1021.1 |
| 20260504025519 | 25 | 270 | 1.6 | 8.0 | 0.00 | 0.28 | 0.25 | 82 | 1021.2 |
| 20260504024519 | 25 | 0.0 | 6.4 | 0.00 | 0.28 | 0.25 | 83 | 1021.0 | |
| 20260504023539 | 25 | 0.0 | 4.8 | 0.00 | 0.28 | 0.25 | 86 | 1020.8 | |
| 20260504022519 | 24 | 0.0 | 4.8 | 0.00 | 0.28 | 0.25 | 86 | 1020.9 | |
| 20260504021519 | 23 | 0.0 | 4.8 | 0.00 | 0.28 | 0.25 | 86 | 1020.9 | |
| 20260504020519 | 23 | 248 | 1.6 | 4.8 | 0.00 | 0.28 | 0.25 | 86 | 1020.5 |
| 20260504015519 | 23 | 0.0 | 4.8 | 0.05 | 0.28 | 0.25 | 85 | 1020.4 | |
| 20260504014519 | 22 | 0.0 | 0.0 | 0.25 | 0.28 | 0.25 | 85 | 1020.3 | |
| 20260504013519 | 22 | 0.0 | 0.0 | 0.25 | 0.28 | 0.25 | 84 | 1020.2 | |
| 20260504012519 | 21 | 0.0 | 0.0 | 0.25 | 0.28 | 0.25 | 84 | 1020.0 | |
| 20260504011519 | 21 | 0.0 | 0.0 | 0.25 | 0.28 | 0.25 | 85 | 1020.2 | |
| 20260504010519 | 22 | 0.0 | 1.6 | 0.25 | 0.28 | 0.25 | 83 | 1020.5 | |
| 20260504005519 | 22 | 0.0 | 0.0 | 0.20 | 0.23 | 0.20 | 78 | 1020.4 | |
| 20260504004519 | 22 | 0.0 | 6.4 | 0.00 | 0.03 | 0.00 | 75 | 1020.6 | |
| 20260504003539 | 23 | 90 | 4.8 | 14.5 | 0.00 | 0.03 | 0.00 | 75 | 1020.6 |
| 20260504002518 | 23 | 0.0 | 3.2 | 0.00 | 0.03 | 0.00 | 85 | 1020.8 | |
| 20260504001519 | 23 | 0.0 | 3.2 | 0.00 | 0.03 | 0.00 | 85 | 1020.7 | |
| 20260504000519 | 23 | 0.0 | 1.6 | 0.00 | 0.03 | 0.00 | 84 | 1020.5 | |
| 20260503235518 | 23 | 0.0 | 3.2 | 0.00 | 0.03 | 0.00 | 84 | 1020.2 | |
| 20260503234518 | 23 | 0.0 | 1.6 | 0.00 | 0.03 | 0.00 | 84 | 1020.2 | |
| 20260503233518 | 23 | 0.0 | 1.6 | 0.00 | 0.03 | 0.00 | 84 | 1020.0 | |
| 20260503232519 | 23 | 0.0 | 6.4 | 0.00 | 0.03 | 0.00 | 84 | 1019.8 | |
| 20260503231518 | 23 | 0.0 | 0.0 | 0.00 | 0.03 | 0.00 | 84 | 1019.8 | |
| 20260503230518 | 23 | 0.0 | 3.2 | 0.00 | 0.03 | 0.00 | 84 | 1019.8 | |
| 20260503225518 | 23 | 0.0 | 1.6 | 0.00 | 0.03 | 0.00 | 84 | 1019.6 | |
| 20260503224518 | 23 | 0.0 | 0.0 | 0.00 | 0.03 | 0.00 | 84 | 1019.4 | |
| 20260503223518 | 23 | 135 | 1.6 | 4.8 | 0.00 | 0.03 | 0.00 | 84 | 1019.2 |
| 20260503222518 | 23 | 0.0 | 1.6 | 0.00 | 0.03 | 0.00 | 84 | 1019.4 | |
| 20260503221558 | 23 | 0.0 | 3.2 | 0.00 | 0.03 | 0.00 | 84 | 1019.4 | |
| 20260503220538 | 23 | 0.0 | 3.2 | 0.00 | 0.03 | 0.00 | 84 | 1019.2 | |
| 20260503215538 | 23 | 0.0 | 1.6 | 0.00 | 0.03 | 0.00 | 84 | 1019.2 | |
| 20260503214518 | 23 | 0.0 | 8.0 | 0.00 | 0.03 | 0.00 | 83 | 1018.9 | |
| 20260503213518 | 24 | 135 | 1.6 | 6.4 | 0.00 | 0.03 | 0.00 | 83 | 1018.7 |
| 20260503212518 | 24 | 248 | 1.6 | 11.3 | 0.00 | 0.03 | 0.00 | 83 | 1019.0 |
| 20260503211518 | 24 | 203 | 1.6 | 8.0 | 0.00 | 0.03 | 0.00 | 82 | 1019.1 |
| 20260503210518 | 24 | 248 | 1.6 | 9.7 | 0.00 | 0.03 | 0.00 | 82 | 1019.2 |